STARLINK-31070 (58639 NORAD) Tracking and Keplerian Element Data

This shows tracking and keplerian element data for the satellite.

Feedback or suggestion? Click here.




ElementValue
Catalog58639
NameSTARLINK-31070
Epoch Orbit457
Epoch Day13.25002315
Epoch Year2024
RAAN183.8307
Inclination43.0013
Eccentricity0.0001547
Argument of Perigee262.2388
Mean Anonmoly325.5932
Mean Motion15.5096865
Decay Rate-0.01913168
L11 58639U 23203X 24013.25002315 -.01913168 00000+0 -35812-1 0 9999
L22 58639 43.0013 183.8307 0001547 262.2388 325.5932 15.50968650 4572



Live tracking and technical data element details for STARLINK-31070 (NORAD 58639). STARLINK-31070 can be tracked NOW for your location showing map with azimuth and elevation plus other details from your city location.







IsCatalogInMostPopularTable: catalog: 58639, numindb: 25
Update: records affected: 1



GetName: 58639 STARLINK-31070

Hit Count: updated at: Wed, 17 Apr 2024 03:00:33 GMT